Weather in Zagan

Poland     51°36′52″N   15°18′04″E
temp.,
°C
wind,
m/s
gust,
m/s
humid.,
%
clouds,
%
prec.,
mm/h
press.,
hPa
HPBL,
m
28 november, sun
sun2801:00+1sw3989100 0.0 997233
04:00+1sw3797100 0.1 997321
07:00+2w3584100 0.1 997544
10:00+2wsw1279100 0.0 998270
13:00+3ne0073100 0.0 997372
16:00+2nne1180100 0.0 99635
19:00+1nnw2283100 0.0 99777
22:00+1wnw2583100 0.0 997214
29 november, mon
mon2901:00+1wnw2686100 0.0 997295
04:000w3792100 0.0 998313
07:00−1w3995100 0.1 999414
10:00+1wnw5987100 0.1 1000704
13:00+1w51196100 0.3 1001823
16:00+1w61186100 0.3 1002881
19:00+1wnw61193100 1.2 1004948
22:00+1wnw51083100 0.2 1006860
30 november, tue
tue3001:00+1w51075100 0.2 1008949
04:000w51187100 0.1 1009617
07:000wsw51293100 0.1 1008629
10:00+1sw71695100 0.3 1006919
13:00+2wsw81896100 2.1 10011116
16:00+1wsw81796100 5.1 9991034
19:00+3w71597100 8.2 10001082
22:00+4w71590100 0.3 10011352
1 december, wed
wed101:00+5w71484100 0.4 10021242
04:00+5wsw71790100 0.5 1001723
07:00+6wsw71691100 2.3 999959
10:00+6wsw81787100 0.2 9981086
13:00+7wsw91879100 0.6 9951180
16:00+7wsw91983100 0.0 9941346
19:00+6wsw91782100 0.0 9941384
22:00+6wsw81583100 0.0 9951095
2 december, thu
thu201:00+5wsw61389100 0.0 995882
04:00+5sw61191100 0.0 995847
07:00+5sw51191100 0.3 9951124
10:00+5sw51193100 0.7 9951218
13:00+4wsw51196100 1.2 9951088
16:00+5wsw51078100 0.1 996853
19:00+4wsw410815 0.1 996666
22:00+2sw299011 0.0 997245